Location: Austin
(30.3000°N, 97.7500°W)
Time: 23:34:11
(UTC-05:00)

Atlas Centaur 2 - Pass Details

Date: 08 April 2026
Orbit: 456 x 1247 km, 30.4° (Epoch: 20 April)

Event Time Altitude Azimuth Distance (km) Brightness Sun altitude
Rises 21:23:28 0° 277° (W) 3,371 6.8 -19.4°
Reaches altitude 10° 21:25:48 10° 276° (W) 2,550 5.8 -19.8°
Maximum altitude 21:32:05 78° 191° (S) 1,054 2.6 -21.1°
Enters shadow 21:35:07 38° 112° (ESE) 1,593 3.1 -21.7°
